Hourly Weather Bartniki

Today, 19 April, Monday

Time Temperature Precipitation Wind Pressure Humidity
00:00 +8°C° 0 mm 1 mps 754 mmHg 79%
01:00 +7°C° 0 mm 2 mps 754 mmHg 79%
02:00 +7°C° 0 mm 2 mps 754 mmHg 81%
03:00 +7°C° 0 mm 2 mps 754 mmHg 83%
04:00 +6°C° 0 mm 2 mps 753 mmHg 85%
05:00 +7°C° 0 mm 2 mps 753 mmHg 85%
06:00 +7°C° 0 mm 2 mps 753 mmHg 84%
07:00 +8°C° 0 mm 2 mps 753 mmHg 83%
08:00 +9°C° 0 mm 3 mps 753 mmHg 79%
09:00 +11°C° 0 mm 3 mps 753 mmHg 76%
10:00 +12°C° 0 mm 3 mps 752 mmHg 72%
11:00 +13°C° 0.2 mm 3 mps 752 mmHg 70%
12:00 +13°C° 0.2 mm 3 mps 752 mmHg 69%
13:00 +14°C° 0.2 mm 3 mps 752 mmHg 67%
14:00 +14°C° 0.3 mm 3 mps 752 mmHg 65%
15:00 +14°C° 0.3 mm 3 mps 751 mmHg 63%
16:00 +14°C° 0.3 mm 3 mps 751 mmHg 61%
17:00 +13°C° 0.2 mm 3 mps 751 mmHg 66%
18:00 +12°C° 0.2 mm 3 mps 752 mmHg 72%
19:00 +10°C° 0.2 mm 3 mps 752 mmHg 77%
20:00 +10°C° 0 mm 3 mps 752 mmHg 77%
21:00 +10°C° 0 mm 3 mps 752 mmHg 78%
22:00 +9°C° 0 mm 2 mps 752 mmHg 79%
23:00 +9°C° 0 mm 2 mps 752 mmHg 77%

Tomorrow, 20 April, Tuesday

Time Temperature Precipitation Wind Pressure Humidity
00:00 +9°C° 0 mm 2 mps 752 mmHg 75%
01:00 +9°C° 0 mm 2 mps 752 mmHg 73%
02:00 +8°C° 0 mm 2 mps 752 mmHg 73%
03:00 +8°C° 0 mm 2 mps 752 mmHg 73%
04:00 +8°C° 0 mm 2 mps 751 mmHg 72%
05:00 +8°C° 0 mm 2 mps 752 mmHg 73%
06:00 +9°C° 0 mm 2 mps 752 mmHg 74%
07:00 +9°C° 0 mm 2 mps 752 mmHg 75%
08:00 +10°C° 0.2 mm 2 mps 752 mmHg 70%
09:00 +12°C° 0.2 mm 2 mps 752 mmHg 66%
10:00 +12°C° 0.2 mm 3 mps 752 mmHg 61%
11:00 +14°C° 0.2 mm 2 mps 751 mmHg 58%
12:00 +14°C° 0.2 mm 2 mps 751 mmHg 55%
13:00 +15°C° 0.2 mm 2 mps 751 mmHg 52%
14:00 +15°C° 0.2 mm 2 mps 750 mmHg 53%
15:00 +15°C° 0.2 mm 2 mps 750 mmHg 55%
16:00 +15°C° 0.2 mm 2 mps 750 mmHg 56%
17:00 +13°C° 0.1 mm 2 mps 750 mmHg 62%
18:00 +12°C° 0.1 mm 2 mps 750 mmHg 68%
19:00 +10°C° 0.1 mm 2 mps 750 mmHg 74%
20:00 +10°C° 0 mm 1 mps 750 mmHg 75%
21:00 +10°C° 0 mm 1 mps 750 mmHg 77%
22:00 +9°C° 0 mm 1 mps 750 mmHg 79%
23:00 +9°C° 0 mm 1 mps 750 mmHg 81%

Day after tomorrow, 21 April, Wednesday

Time Temperature Precipitation Wind Pressure Humidity
00:00 +9°C° 0 mm 1 mps 750 mmHg 83%
01:00 +8°C° 0 mm 1 mps 750 mmHg 86%
02:00 +7°C° 0 mm 2 mps 750 mmHg 87%
03:00 +7°C° 0 mm 2 mps 749 mmHg 88%
04:00 +7°C° 0 mm 2 mps 749 mmHg 89%
05:00 +8°C° 0.1 mm 2 mps 749 mmHg 87%
06:00 +8°C° 0.1 mm 2 mps 749 mmHg 85%
07:00 +9°C° 0.1 mm 3 mps 749 mmHg 82%
08:00 +10°C° 0.1 mm 3 mps 749 mmHg 80%
09:00 +11°C° 0.1 mm 4 mps 749 mmHg 77%
10:00 +12°C° 0.1 mm 4 mps 749 mmHg 75%
11:00 +12°C° 0.6 mm 4 mps 749 mmHg 69%
12:00 +13°C° 0.6 mm 5 mps 749 mmHg 64%
13:00 +14°C° 0.6 mm 5 mps 748 mmHg 59%
14:00 +14°C° 0.1 mm 5 mps 748 mmHg 57%
15:00 +14°C° 0.1 mm 5 mps 748 mmHg 55%
16:00 +14°C° 0.1 mm 5 mps 748 mmHg 54%
17:00 +13°C° 0 mm 4 mps 748 mmHg 59%
18:00 +11°C° 0 mm 3 mps 748 mmHg 65%
19:00 +9°C° 0 mm 3 mps 748 mmHg 71%
20:00 +9°C° 0 mm 3 mps 749 mmHg 77%
21:00 +8°C° 0 mm 3 mps 749 mmHg 82%
22:00 +7°C° 0 mm 3 mps 750 mmHg 87%
23:00 +7°C° 0.1 mm 3 mps 750 mmHg 85%

22 April, Thursday

Time Temperature Precipitation Wind Pressure Humidity
00:00 +5°C° 0.1 mm 3 mps 750 mmHg 84%
01:00 +5°C° 0.1 mm 3 mps 750 mmHg 82%
02:00 +4°C° 0 mm 3 mps 750 mmHg 83%
03:00 +4°C° 0 mm 4 mps 750 mmHg 85%
04:00 +3°C° 0 mm 4 mps 750 mmHg 86%
05:00 +2°C° 0 mm 5 mps 751 mmHg 81%
06:00 +2°C° 0 mm 5 mps 751 mmHg 76%
07:00 +2°C° 0 mm 6 mps 751 mmHg 71%
08:00 +3°C° 0 mm 6 mps 751 mmHg 65%
09:00 +4°C° 0 mm 6 mps 751 mmHg 59%
10:00 +5°C° 0 mm 6 mps 751 mmHg 53%
11:00 +5°C° 0 mm 7 mps 751 mmHg 50%
12:00 +6°C° 0 mm 7 mps 751 mmHg 48%
13:00 +8°C° 0 mm 7 mps 751 mmHg 45%
14:00 +6°C° 0.1 mm 7 mps 751 mmHg 49%
15:00 +6°C° 0.1 mm 7 mps 751 mmHg 53%
16:00 +6°C° 0.1 mm 7 mps 751 mmHg 56%
17:00 +5°C° 0 mm 6 mps 751 mmHg 61%
18:00 +5°C° 0 mm 5 mps 751 mmHg 65%
19:00 +4°C° 0 mm 4 mps 751 mmHg 69%
20:00 +3°C° 0 mm 4 mps 752 mmHg 72%
21:00 +3°C° 0 mm 4 mps 752 mmHg 75%
22:00 +2°C° 0 mm 3 mps 752 mmHg 78%
23:00 +1°C° 0 mm 4 mps 752 mmHg 79%

23 April, Friday

Time Temperature Precipitation Wind Pressure Humidity
00:00 +1°C° 0 mm 4 mps 752 mmHg 79%
01:00 +1°C° 0 mm 5 mps 752 mmHg 80%
02:00 +1°C° 0 mm 5 mps 753 mmHg 82%
03:00 0°C° 0 mm 5 mps 753 mmHg 84%
04:00 0°C° 0 mm 5 mps 753 mmHg 85%
05:00 +1°C° 0 mm 5 mps 754 mmHg 84%
06:00 +1°C° 0 mm 5 mps 754 mmHg 83%
07:00 +2°C° 0 mm 5 mps 755 mmHg 82%
08:00 +3°C° 0 mm 6 mps 755 mmHg 73%
09:00 +5°C° 0 mm 6 mps 755 mmHg 65%
10:00 +7°C° 0 mm 6 mps 755 mmHg 57%
11:00 +8°C° 0.2 mm 6 mps 755 mmHg 54%
12:00 +8°C° 0.2 mm 6 mps 755 mmHg 51%
13:00 +9°C° 0.2 mm 6 mps 755 mmHg 48%
14:00 +9°C° 0.1 mm 5 mps 755 mmHg 48%
15:00 +9°C° 0.1 mm 5 mps 755 mmHg 47%
16:00 +9°C° 0.1 mm 5 mps 755 mmHg 47%
17:00 +8°C° 0 mm 4 mps 755 mmHg 54%
18:00 +7°C° 0 mm 4 mps 755 mmHg 62%
19:00 +5°C° 0 mm 3 mps 755 mmHg 69%
20:00 +5°C° 0 mm 3 mps 755 mmHg 73%
21:00 +4°C° 0 mm 3 mps 755 mmHg 77%
22:00 +3°C° 0 mm 3 mps 756 mmHg 81%
23:00 +3°C° 0 mm 4 mps 755 mmHg 82%

24 April, Saturday

Time Temperature Precipitation Wind Pressure Humidity
00:00 +3°C° 0 mm 4 mps 755 mmHg 84%
01:00 +3°C° 0 mm 4 mps 755 mmHg 85%
02:00 +3°C° 0 mm 4 mps 755 mmHg 85%
03:00 +3°C° 0 mm 4 mps 754 mmHg 84%
04:00 +2°C° 0 mm 5 mps 754 mmHg 84%
05:00 +3°C° 0 mm 5 mps 754 mmHg 82%
06:00 +3°C° 0 mm 5 mps 754 mmHg 80%
07:00 +4°C° 0 mm 6 mps 754 mmHg 78%
08:00 +5°C° 0 mm 6 mps 754 mmHg 71%
09:00 +7°C° 0 mm 6 mps 754 mmHg 64%
10:00 +8°C° 0 mm 6 mps 754 mmHg 57%
11:00 +8°C° 0 mm 6 mps 754 mmHg 59%
12:00 +8°C° 0 mm 6 mps 754 mmHg 61%
13:00 +8°C° 0 mm 5 mps 754 mmHg 62%
14:00 +8°C° 0.1 mm 6 mps 754 mmHg 63%
15:00 +8°C° 0.1 mm 6 mps 754 mmHg 63%
16:00 +8°C° 0.1 mm 6 mps 754 mmHg 64%
17:00 +6°C° 0 mm 5 mps 754 mmHg 66%
18:00 +5°C° 0 mm 4 mps 755 mmHg 69%
19:00 +4°C° 0 mm 3 mps 755 mmHg 72%
20:00 +3°C° 0 mm 3 mps 755 mmHg 77%
21:00 +3°C° 0 mm 3 mps 756 mmHg 81%
22:00 +2°C° 0 mm 3 mps 756 mmHg 86%
23:00 +1°C° 0 mm 3 mps 757 mmHg 83%
Show more